Flag for Spain

Past Weather in Zaragoza, Spain — Yesterday and Last 2 Weeks

Now
63 °F

Passing clouds.


Feels Like: 63 °F
Forecast: 72 / 50 °F
Wind: 24 mph from Northwest

Location: Zaragoza / Aeropuerto
Current Time: Sep 28, 2020 at 12:27:47 pm
Latest Report: Sep 28, 2020 at 11:30 am
Visibility: N/A
Pressure30.09 "Hg
Humidity: 45%
Dew Point: 41 °F
Location of ZaragozaLocation

Past Weather in Zaragoza — Graph

°F

Zaragoza Temperature Yesterday

Maximum temperature yesterday: 66 °F (at 3:30 pm)
Minimum temperature yesterday: 52 °F (at 5:00 am)
Average temperature yesterday: 59 °F

High & Low Weather Summary for the Past Weeks

 TemperatureHumidityPressure
High93 °F (Sep 13, 5:00 pm)94% (Sep 18, 4:19 pm)30.24 "Hg (Sep 18, 4:19 pm)
Low52 °F (Sep 27, 5:00 am)16% (Sep 13, 7:00 pm)29.77 "Hg (Sep 26, 11:30 pm)
Average70 °F58%30.01 "Hg
* Reported Sep 13 11:00 am — Sep 28 11:30 am, Zaragoza. Weather by CustomWeather, © 2020

Note: Actual official high and low records may vary slightly from our data, if they occured in-between our weather recording intervals... More about our weather records

Zaragoza Weather History for the Previous 24 Hours

Scroll right to see more
 ConditionsComfort  
Time TempWeatherWind HumidityBarometerVisibility
11:30 am
Mon, Sep 28
63 °FPassing clouds.24 mph45%30.09 "HgN/A
11:00 am63 °FPassing clouds.26 mph49%30.09 "HgN/A
10:30 am61 °FPassing clouds.24 mph48%30.07 "HgN/A
10:00 am59 °FPassing clouds.23 mph51%30.07 "HgN/A
9:30 am57 °FSunny.22 mph59%30.04 "Hg10 mi
9:00 am55 °FSunny.21 mph59%30.04 "Hg10 mi
8:30 am54 °FSunny.18 mph63%30.04 "Hg10 mi
8:00 am54 °FSunny.21 mph63%30.01 "Hg10 mi
7:30 am54 °FClear.25 mph63%30.01 "Hg10 mi
7:00 am54 °FClear.25 mph63%30.04 "Hg10 mi
6:30 am54 °FClear.18 mph63%30.04 "Hg10 mi
6:00 am55 °FClear.16 mph59%30.04 "Hg10 mi
5:30 am55 °FPassing clouds.16 mph59%30.07 "HgN/A
5:00 am55 °FClear.20 mph59%30.04 "Hg10 mi
4:30 am54 °FClear.16 mph63%30.04 "Hg10 mi
4:00 am54 °FPassing clouds.21 mph63%30.04 "HgN/A
3:30 am54 °FClear.22 mph63%30.04 "Hg10 mi
3:00 am54 °FClear.20 mph63%30.04 "Hg10 mi
2:30 am55 °FClear.22 mph59%30.04 "Hg10 mi
2:00 am54 °FPassing clouds.18 mph63%30.07 "HgN/A
1:30 am55 °FPassing clouds.20 mph59%30.07 "HgN/A
1:00 am55 °FClear.14 mph59%30.07 "Hg10 mi
12:30 am55 °FPassing clouds.15 mph59%30.07 "HgN/A
12:00 am55 °FClear.22 mph59%30.04 "Hg10 mi
11:30 pm
Sun, Sep 27
55 °FPassing clouds.21 mph59%30.04 "HgN/A
11:00 pm55 °FPassing clouds.16 mph59%30.04 "HgN/A
10:30 pm57 °FPassing clouds.17 mph55%30.04 "HgN/A
10:00 pm57 °FClear.17 mph59%30.04 "Hg10 mi
9:30 pm59 °FPassing clouds.17 mph51%30.01 "HgN/A
9:00 pm59 °FClear.22 mph51%30.01 "Hg10 mi
8:30 pm59 °FPassing clouds.13 mph55%30.01 "HgN/A
8:00 pm61 °FPassing clouds.12 mph48%30.01 "HgN/A
7:30 pm63 °FPassing clouds.15 mph45%30.01 "HgN/A
7:00 pm63 °FPassing clouds.20 mph42%30.01 "HgN/A
6:30 pm64 °FPassing clouds.26 mph40%29.98 "HgN/A
6:00 pm64 °FPassing clouds.25 mph43%29.98 "HgN/A
5:30 pm64 °FPassing clouds.24 mph43%29.98 "HgN/A
5:00 pm66 °FPassing clouds.24 mph40%29.98 "HgN/A
4:30 pm66 °FPassing clouds.25 mph40%29.98 "HgN/A
4:00 pm66 °FPassing clouds.29 mph37%29.98 "HgN/A
3:30 pm66 °FPassing clouds.29 mph35%29.98 "HgN/A
3:00 pm64 °FPassing clouds.30 mph37%30.01 "HgN/A
2:30 pm64 °FPassing clouds.29 mph40%30.01 "HgN/A
2:00 pm64 °FPassing clouds.25 mph40%30.01 "HgN/A
1:30 pm64 °FPassing clouds.29 mph43%29.98 "HgN/A
1:00 pm63 °FPassing clouds.30 mph45%29.98 "HgN/A
12:30 pm63 °FPassing clouds.30 mph45%30.01 "HgN/A
12:00 pm61 °FPassing clouds.30 mph52%30.01 "HgN/A
Weather by CustomWeather, © 2020

See weather overview